{"data":{"norad_id":53871,"intl_designator":"2022-114BF","name":"STARLINK-4740","alt_names":[],"object_type":"PAYLOAD","status":"ACTIVE","operator":null,"country":"US","launch_date":"2022-09-19","launch_site_code":"AFETR","launch_vehicle":null,"mission":null,"orbit_class":"UNKNOWN","rcs_meters":null,"size_class":null,"mass_kg":null,"dimensions":null,"purposes":["comms"],"wikipedia_slug":null,"has_3d_model":false,"image_url":null,"decayed_at":null,"tle_current":{"epoch":"2026-05-25T02:29:19.789728Z","epoch_age_seconds":70124,"freshness":"FRESH","line1":"1 53871U 22114BF  26145.10370127  .00000226  00000+0  32263-4 0  9992","line2":"2 53871  53.2135 280.7054 0001210  86.5543 273.5587 15.08838684204932","mean_motion":15.08838684,"eccentricity":0.000121,"inclination_deg":53.2135,"raan_deg":280.7054,"arg_perigee_deg":86.5543,"mean_anomaly_deg":273.5587,"bstar":3.2263e-5,"rev_number":20493,"period_min":95.437637917825,"perigee_km":538.91034743877,"apogee_km":540.58447546634,"semimajor_km":6917.8844114526,"source":"CELESTRAK","updated_at":"2026-05-25T13:38:17.580877Z"}}}